Weather Roundup
Issued by NWS Chicago, IL

Home | Current Version | Previous Version | Text Only | Print | Product List | Glossary Off
Versions: 1 2 3 4 5 6 7 8 9 10 11 12 13 14 15 16 17 18 19 20 21 22 23 24 25 26 27 28 29 30 31 32 33 34 35 36 37 38 39 40 41 42 43 44 45 46 47 48 49 50

000
NZUS59 KLOT 010812
HRRLOT

CHICAGO AREA WEATHER ROUNDUP
NATIONAL WEATHER SERVICE CHICAGO/ROMEOVILLE IL
300 AM CDT TUE SEP 01 2015

NOTE: "FAIR" INDICATES FEW OR NO CLOUDS BELOW 12,000 FEET WITH NO
SIGNIFICANT WEATHER AND/OR OBSTRUCTIONS TO VISIBILITY.

* THESE STATIONS ARE NOT UNDER NWS QUALITY CONTROL. THEY ALSO MAY NOT
  REPORT WEATHER SUCH AS PRECIPITATION OR FOG.

ILZ005-006-012>014-019>023-010900-
NORTHEAST ILLINOIS

CITY           SKY/WX    TMP DP  RH WIND       PRES   REMARKS
OHARE          PTCLDY    71  68  90 S3        30.03S
MIDWAY         PTCLDY    75  69  81 S5        30.04S
AURORA         CLEAR     69  67  93 CALM      30.04S FOG
LANSING*       PTCLDY    70  69  97 CALM      30.05F FOG
JOLIET*          N/A     70  69  97 CALM      30.04S FOG
WAUKEGAN       CLEAR     68  67  96 SW6       30.02F FOG
DUPAGE AIRPORT CLEAR     71  68  90 S3        30.03S
WHEELING       CLEAR     68  65  90 CALM      30.04F
KANKAKEE*      MOCLDY    68  67  96 CALM      30.06F FOG
MORRIS*        CLEAR     69  68  95 CALM      30.03S FOG
LEWIS AIRPORT* PTCLDY    71  69  94 S7        30.04F FOG
NORTHERLY IS     N/A     75  68  78 S3          N/A
$$

WIZ051-052-058>065-066-070>072-010900-
SOUTHEAST WISCONSIN

CITY           SKY/WX    TMP DP  RH WIND       PRES   REMARKS
MILWAUKEE      CLEAR     68  65  90 S5        30.02F
KENOSHA*       CLEAR     66  65  96 CALM      30.03S
RACINE*        CLEAR     68  65  90 S3        30.04S FOG
BURLINGTON     FOG       60  59  99 CALM      30.03S VSB 1/4
WAUKESHA       CLEAR     64  63  94 CALM      30.04S FOG
WEST BEND      FOG       63  63 100 CALM      30.02F VSB 1/4
$$

INZ001>003-010>013-019-020-010900-
NORTHWEST INDIANA

CITY           SKY/WX    TMP DP  RH WIND       PRES   REMARKS
GARY*          CLEAR     73  68  87 CALM      30.05F
MICHIGAN CITY* NOT AVBL
RENSSELAER*    NOT AVBL
VALPARAISO     CLEAR     69  67  93 CALM      30.07F
$$

LMZ740>746-010900-
SOUTHERN LAKE MICHIGAN

STATION/POSITION TIME  SKY/WX   TEMP WIND        PRES    VSBY
                                AIR  DIR/SP/G
                 (UTC)          (F)  (DEG/KT/KT) (MB)    (MI)
HARRISON CRIB    0700            76  190/ 11/ 13   N/A
BURNHAM HARBOR   0800            75  200/  3/  5   N/A
CALUMET HARBOR   0700            74  180/  3/  5   N/A
BURNS HARBOR     0700            73  190/  8/ 11 1017.9F
MICHIGAN CITY    0700            75  160/ 10/ 13   N/A
$$

ABBREVIATIONS USED IN REMARKS
   TC - TEMPERATURE IN CELSIUS
  WCI - WIND CHILL INDEX
   HX - HEAT INDEX
  VSB - VISIBILITY
$$


USA.gov is the U.S. government's official web portal to all federal, state and local government web resources and services.